This is the latest recevied weather packets stored in our database for station/object APPOWX. If no packets are shown the sender has not sent any weather packets the latest 10 day(s).
| Time | Temp. | Humidity | Pressure | Rain* | Wind** | Luminosity | Snow |
|---|---|---|---|---|---|---|---|
| 1778351769 | 20.56° C | 56% | 1012.2 hPa | 0 mm | - | - | - |
| 1778351709 | 20° C | 57% | 1012.4 hPa | 0 mm | - | - | - |
| 1778351648 | 20° C | 58% | 1012.1 hPa | 0 mm | - | - | - |
| 1778351588 | 20° C | 57% | 1012.2 hPa | 0 mm | - | - | - |
| 1778351527 | 21.11° C | 58% | 1012.4 hPa | 0 mm | - | - | - |
| 1778351467 | 21.11° C | 58% | 1012.2 hPa | 0 mm | - | - | - |
| 1778351408 | 21.67° C | 58% | 1012.3 hPa | 0 mm | - | - | - |
| 1778351348 | 21.67° C | 57% | 1012.4 hPa | 0 mm | - | - | - |
| 1778351287 | 21.67° C | 57% | 1012.4 hPa | 0 mm | - | - | - |
| 1778351228 | 21.67° C | 57% | 1012.4 hPa | 0 mm | - | - | - |
| 1778351168 | 21.67° C | 56% | 1012.4 hPa | 0 mm | - | - | - |
| 1778351107 | 21.67° C | 57% | 1012.2 hPa | 0 mm | - | - | - |
| 1778351047 | 21.67° C | 56% | 1012.4 hPa | 0 mm | - | - | - |
| 1778350987 | 20.56° C | 55% | 1012.4 hPa | 0 mm | - | - | - |
| 1778350927 | 21.11° C | 57% | 1012.5 hPa | 0 mm | - | - | - |
| 1778350867 | 21.67° C | 56% | 1012.4 hPa | 0 mm | - | - | - |
| 1778350807 | 21.67° C | 56% | 1012.6 hPa | 0 mm | - | - | - |
| 1778350747 | 22.22° C | 55% | 1012.4 hPa | 0 mm | - | - | - |
| 1778350686 | 21.67° C | 55% | 1012.6 hPa | 0 mm | - | - | - |
| 1778350626 | 21.67° C | 55% | 1012.4 hPa | 0 mm | - | - | - |
| 1778350567 | 21.11° C | 57% | 1012.6 hPa | 0 mm | - | - | - |
| 1778350506 | 21.67° C | 56% | 1012.6 hPa | 0 mm | - | - | - |
| 1778350447 | 20.56° C | 57% | 1012.4 hPa | 0 mm | - | - | - |
| 1778350386 | 21.11° C | 56% | 1012.6 hPa | 0 mm | - | - | - |
| 1778350326 | 21.11° C | 57% | 1012.5 hPa | 0 mm | - | - | - |
* Rain latest hour (hover to see other rain measurements)
** Current wind speed in m/s (hover to see current wind gust speed)